Location: Allie Creek
(37.5926°N, 89.8526°W)
Time: 12:14:34
(UTC+00:00)

Cosmos 1271 Rocket - Pass Details

Date: 26 September 2023
Orbit: 480 x 522 km, 81.2° (Epoch: 29 November)

Event Time Altitude Azimuth Distance (km) Brightness Sun altitude
Rises 10:55:02 0° 348° (NNW) 2,610 6.2 -11.8°
Reaches altitude 10° 10:57:11 10° 347° (NNW) 1,713 5.3 -11.4°
Maximum altitude 11:00:55 71° 263° (W) 527 2.5 -10.6°
Drops below altitude 10° 11:04:33 10° 179° (S) 1,673 5.2 -9.9°
Sets 11:06:38 0° 177° (S) 2,543 6.2 -9.5°
